EZY66 BIKF-BGKK

Flight info

Callsign EZY66
Flight time N/A
Altitude 38000
Route RALOV3A RALOV DCT SOSIT DCT SABAG
Aircraft A20N/M-SDE2E3FGHIRWXY/LB1

Departure

Time 2026-05-07 15:37
Airport Keflavik International Airport (BIKF)

Arrival

Time N/A
Airport Kulusuk Airport (BGKK)
Time Latitude Longitude Altitude Speed Heading
2026-05-07 15:37 63.98315 -22.73769 2717 ft 169 kts 264°
2026-05-07 15:37 63.98193 -22.76515 3391 ft 185 kts 264°
2026-05-07 15:38 63.98061 -22.79594 4206 ft 200 kts 264°
2026-05-07 15:38 63.97930 -22.82755 5233 ft 201 kts 265°
2026-05-07 15:38 63.97800 -22.85893 6191 ft 201 kts 264°
2026-05-07 15:38 63.97655 -22.89061 7133 ft 201 kts 263°
2026-05-07 15:39 63.97486 -22.92459 7279 ft 228 kts 264°
2026-05-07 15:39 63.97330 -22.96387 7565 ft 260 kts 265°
2026-05-07 15:39 63.97180 -23.00523 8527 ft 263 kts 265°
2026-05-07 15:39 63.97020 -23.04780 9303 ft 277 kts 265°
2026-05-07 15:40 63.96843 -23.09220 10171 ft 284 kts 265°
2026-05-07 15:40 63.96653 -23.13818 10749 ft 304 kts 264°
2026-05-07 15:40 63.96443 -23.18802 11127 ft 327 kts 264°
2026-05-07 15:40 63.96221 -23.23999 11788 ft 338 kts 264°
2026-05-07 15:41 63.95989 -23.29355 12673 ft 342 kts 264°
2026-05-07 15:41 63.95753 -23.34793 13516 ft 346 kts 264°
2026-05-07 15:41 63.95512 -23.40283 14326 ft 351 kts 264°
2026-05-07 15:41 63.95266 -23.45839 15115 ft 355 kts 264°
2026-05-07 15:42 63.95016 -23.51449 15894 ft 359 kts 264°
2026-05-07 15:42 63.94760 -23.57132 16643 ft 363 kts 264°
2026-05-07 15:42 63.94498 -23.62886 17368 ft 367 kts 264°
2026-05-07 15:42 63.94232 -23.68690 18072 ft 371 kts 264°
2026-05-07 15:43 63.93961 -23.74558 18760 ft 375 kts 264°
2026-05-07 15:43 63.93684 -23.80492 19430 ft 379 kts 264°
2026-05-07 15:43 63.93401 -23.86495 20087 ft 383 kts 264°
2026-05-07 15:43 63.93118 -23.92464 20719 ft 387 kts 264°
2026-05-07 15:44 63.92825 -23.98575 21346 ft 391 kts 264°
2026-05-07 15:44 63.92527 -24.04742 21947 ft 394 kts 264°
2026-05-07 15:44 63.92223 -24.10961 22539 ft 398 kts 264°
2026-05-07 15:44 63.91913 -24.17246 23116 ft 402 kts 263°
2026-05-07 15:45 63.91599 -24.23579 23678 ft 405 kts 263°
2026-05-07 15:45 63.91279 -24.29962 24236 ft 409 kts 263°
2026-05-07 15:45 63.90953 -24.36405 24765 ft 412 kts 263°
2026-05-07 15:45 63.90621 -24.42893 25274 ft 416 kts 263°
2026-05-07 15:46 63.89941 -24.56037 26251 ft 422 kts 263°
2026-05-07 15:46 63.89593 -24.62671 26712 ft 425 kts 263°
2026-05-07 15:46 63.89240 -24.69351 27160 ft 428 kts 263°
2026-05-07 15:47 63.88881 -24.76080 27591 ft 431 kts 263°
2026-05-07 15:47 63.88763 -24.82896 27990 ft 434 kts 274°
2026-05-07 15:47 63.89215 -24.89681 28384 ft 437 kts 284°
2026-05-07 15:47 63.90218 -24.96192 28757 ft 439 kts 294°
2026-05-07 15:48 63.91520 -25.02506 29122 ft 442 kts 295°
2026-05-07 15:48 63.92822 -25.08842 29481 ft 444 kts 295°
2026-05-07 15:48 63.94129 -25.15229 29818 ft 447 kts 295°
2026-05-07 15:48 63.95442 -25.21669 30175 ft 449 kts 294°
2026-05-07 15:49 63.96753 -25.28137 30515 ft 452 kts 294°
2026-05-07 15:49 63.98069 -25.34652 30858 ft 454 kts 294°
2026-05-07 15:49 63.99387 -25.41204 31221 ft 456 kts 294°
2026-05-07 15:49 64.00705 -25.47780 31643 ft 455 kts 294°
2026-05-07 15:50 64.02001 -25.54261 32086 ft 455 kts 294°
2026-05-07 15:50 64.03325 -25.60908 32522 ft 454 kts 294°
2026-05-07 15:50 64.04608 -25.67370 32928 ft 453 kts 294°
2026-05-07 15:50 64.05904 -25.73919 33326 ft 452 kts 294°
2026-05-07 15:51 64.07208 -25.80528 33715 ft 451 kts 294°
2026-05-07 15:51 64.08478 -25.86984 34080 ft 450 kts 294°
2026-05-07 15:51 64.09757 -25.93511 34437 ft 449 kts 294°
2026-05-07 15:51 64.11031 -26.00026 34787 ft 449 kts 294°
2026-05-07 15:52 64.12301 -26.06549 35119 ft 448 kts 294°
2026-05-07 15:52 64.13565 -26.13059 35443 ft 447 kts 294°
2026-05-07 15:52 64.14826 -26.19573 35752 ft 447 kts 294°
2026-05-07 15:52 64.16079 -26.26068 36062 ft 446 kts 294°
2026-05-07 15:53 64.17331 -26.32581 36334 ft 446 kts 294°
2026-05-07 15:53 64.18577 -26.39078 36582 ft 446 kts 293°
2026-05-07 15:53 64.19823 -26.45600 36832 ft 446 kts 293°
2026-05-07 15:53 64.21064 -26.52117 37064 ft 446 kts 293°
2026-05-07 15:54 64.22303 -26.58641 37292 ft 446 kts 293°
2026-05-07 15:54 64.23540 -26.65182 37515 ft 446 kts 293°
2026-05-07 15:54 64.24773 -26.71716 37736 ft 446 kts 293°
2026-05-07 15:54 64.26002 -26.78256 37936 ft 446 kts 293°
2026-05-07 15:55 64.27229 -26.84801 37998 ft 446 kts 293°
2026-05-07 15:55 64.29669 -26.97890 38000 ft 444 kts 293°
2026-05-07 15:56 64.32081 -27.10908 38000 ft 445 kts 293°
2026-05-07 15:56 64.34496 -27.24032 38000 ft 444 kts 292°
2026-05-07 15:57 64.36103 -27.32814 38000 ft 444 kts 292°